Location: Moscow
(38.8570°N, 84.2291°W)
Time: 16:01:21
(UTC+00:00)

Landsat 7 - Pass Details

Date: 15 November 2025
Orbit: 680 x 682 km, 97.9° (Epoch: 06 December)

Event Time Altitude Azimuth Distance (km) Brightness Sun altitude
Rises 23:06:35 0° 160° (SSE) 3,028 7.1 -8.8°
Reaches altitude 10° 23:08:48 10° 158° (SSE) 2,116 6.2 -9.2°
Maximum altitude 23:13:25 70° 75° (ENE) 727 3.7 -10.1°
Drops below altitude 10° 23:18:03 10° 353° (N) 2,130 6.2 -10.9°
Sets 23:20:18 0° 351° (N) 3,049 7.1 -11.4°
